Vorticity
nan nan nan nan nan nan nan nan nan nan nan nan nan nan nan nan nan nan nan nan nan nan nan nan nan nan nan nan nan nan nan nan nan nan nan nan nan nan nan nan nan nan nan nan
nan 11 10 7 8 7 10 8 11 7 3 3 11 12 17 17 15 6 4 6 6 7 7 6 7 8 8 8 8 8 8 10 11 11 10 9 9 9 10 12 13 11 8 nan
nan 12 9 8 6 8 5 11 9 5 5 9 13 23 8 2 -0 0 3 5 5 6 7 7 9 9 8 10 10 8 9 10 10 8 11 8 7 9 10 10 13 14 10 nan
nan 6 8 7 5 8 9 8 4 3 6 11 10 14 13 8 -3 -2 5 6 7 7 10 9 7 11 12 18 17 12 11 12 11 12 10 10 9 8 10 9 9 13 13 nan
nan 11 8 7 7 8 8 5 6 8 9 12 17 11 13 2 -2 5 7 9 10 12 10 11 9 9 11 11 21 26 20 19 15 13 11 13 9 6 10 11 12 11 12 nan
nan 7 9 12 7 5 6 10 12 13 16 13 9 7 -0 2 5 10 8 8 12 15 12 7 9 10 12 10 9 16 24 22 19 24 23 14 11 9 8 7 8 12 12 nan
nan 5 6 9 11 5 7 12 18 14 7 9 1 4 8 2 9 6 15 11 12 6 7 7 8 9 9 8 10 12 13 13 15 20 22 27 25 16 11 13 10 8 9 nan
nan 10 6 5 8 8 13 11 13 9 6 5 10 13 1 4 5 4 12 8 7 9 8 7 8 8 8 9 8 9 10 10 13 13 13 17 23 25 16 15 16 13 10 nan
nan 8 7 10 9 12 8 9 9 16 11 8 13 9 3 -1 -4 9 6 8 6 6 7 7 7 9 9 9 9 8 10 9 9 13 13 12 12 14 13 11 12 11 10 nan
nan 7 10 7 6 7 8 13 10 8 7 10 7 10 10 0 4 10 10 8 4 5 6 7 6 6 10 11 9 9 9 10 9 9 11 10 10 12 10 8 10 10 8 nan
nan 8 11 8 10 6 11 6 5 5 12 8 8 8 11 6 8 10 9 7 7 7 8 8 9 7 7 9 10 10 6 9 13 10 7 13 9 9 11 10 9 10 11 nan
nan 12 8 7 10 11 9 10 8 12 11 3 3 10 6 3 8 9 9 7 6 7 8 10 10 9 8 8 9 10 8 8 10 12 9 9 11 11 10 9 9 9 9 nan
nan 7 8 8 10 14 13 7 5 5 4 6 4 15 -0 -6 6 9 11 6 7 7 8 10 11 11 9 9 9 9 10 8 7 9 13 10 10 9 11 8 9 9 10 nan
nan 4 4 5 8 12 11 5 2 1 2 9 6 -2 5 7 8 11 9 6 7 7 7 10 10 11 11 9 8 9 12 10 7 8 12 10 9 9 11 10 9 10 9 nan
nan 11 11 7 7 9 9 10 11 8 5 1 2 8 13 8 8 11 8 7 7 7 8 9 9 9 10 10 9 9 9 9 11 12 9 7 9 9 9 12 9 11 9 nan
nan 10 9 13 13 10 12 15 13 11 12 10 7 13 7 5 9 12 9 6 8 8 9 9 9 10 10 9 9 10 9 8 8 9 9 9 11 10 10 9 9 9 8 nan
nan 8 8 12 7 9 20 15 7 8 11 15 8 7 5 9 14 15 7 7 9 9 9 10 10 10 10 9 10 9 10 9 10 9 9 9 9 9 10 9 9 9 11 nan
nan 6 8 11 11 11 11 9 10 12 12 11 8 5 8 9 17 14 4 8 10 10 10 10 11 9 9 10 11 11 11 10 9 9 9 9 9 10 10 10 9 10 9 nan
nan 10 8 9 9 13 13 5 7 13 15 10 7 6 8 12 20 8 -0 9 9 9 11 9 9 10 10 10 11 12 11 11 10 10 10 10 10 10 10 9 10 11 11 nan
nan 8 10 11 8 8 11 12 11 11 11 6 8 9 8 11 14 1 3 9 10 10 10 9 10 11 10 9 11 12 10 10 9 9 10 11 10 10 10 10 12 11 10 nan
nan 12 13 8 8 12 6 9 10 9 9 9 11 10 9 11 8 4 7 9 9 9 9 11 10 10 9 10 10 11 10 9 10 10 10 11 11 11 11 11 12 11 12 nan
nan 8 10 9 14 15 11 7 8 13 10 9 8 9 8 9 8 10 10 9 9 9 9 11 11 9 10 10 10 9 10 9 10 10 10 10 12 13 10 11 12 11 12 nan
nan 9 11 7 13 14 8 11 13 9 9 7 9 8 9 9 10 9 9 9 9 11 11 11 10 9 9 9 10 10 9 10 11 11 11 10 10 11 11 11 13 12 11 nan
nan 9 8 12 11 10 8 9 9 9 9 8 9 9 10 9 10 11 11 10 9 9 10 10 10 11 9 9 10 10 10 11 11 11 12 12 10 10 13 12 11 11 10 nan
nan 12 5 11 13 12 14 12 9 10 10 9 7 8 10 10 9 10 10 11 11 10 10 10 11 10 9 10 10 10 10 11 12 12 12 12 11 11 12 12 11 10 9 nan
nan nan nan nan nan nan nan nan nan nan nan nan nan nan nan nan nan nan nan nan nan nan nan nan nan nan nan nan nan nan nan nan nan nan nan nan nan nan nan nan nan nan nan nan
CAPE
0 0 0 0 0 0 0 0 0 0 0 0 0 0 0 0 0 0 0 0 0 0 0 0 0 0 0 0 0 0 0 0 0 44 1255 1671 1878 2126 2117 2076 2263 2057 2249 2188
0 0 0 0 0 0 0 0 0 0 0 0 0 0 0 0 0 0 0 0 0 0 0 0 0 0 0 0 0 0 0 0 0 0 100 1159 1562 1563 1806 2054 2440 2271 2036 2153
0 0 0 0 0 0 0 0 0 0 0 0 0 0 0 0 0 0 0 0 0 0 0 0 0 0 0 0 0 0 0 0 0 0 0 640 1503 1783 1953 2274 2407 2575 2072 1964
0 0 0 0 0 0 0 0 0 0 0 0 0 0 0 0 0 0 0 0 0 0 0 0 0 0 1 3 0 0 0 0 0 26 128 457 1531 1744 2039 1785 1842 1950 2193 1705
0 0 0 0 0 0 0 0 0 0 0 0 0 0 0 0 0 0 0 0 3 2 15 10 8 5 1 0 1 13 0 46 310 666 865 771 1697 2126 2081 1846 1521 1443 1949 1976
0 0 0 0 0 0 0 0 0 0 0 0 0 0 0 0 0 2 27 50 67 14 0 1 1 1 1 0 2 7 12 36 79 1450 1747 1637 2211 2466 2319 2397 1691 1727 1800 1767
0 0 0 0 0 0 0 0 0 0 0 0 0 0 0 0 1 40 68 43 7 7 6 10 11 8 8 3 4 10 13 11 8 3 322 1769 2289 2043 1621 1751 2098 1725 793 650
0 0 0 0 0 0 0 0 0 0 0 0 0 0 0 0 23 26 53 37 9 11 11 11 10 10 13 10 14 5 7 10 11 11 4 0 79 789 1056 1103 1084 1127 1291 994
0 0 0 0 0 0 0 0 0 0 0 0 0 0 0 0 20 9 27 4 9 8 10 11 15 9 7 10 13 9 14 4 10 8 3 7 4 6 204 1 1 214 9 105
0 0 0 0 0 0 0 0 0 4 0 0 0 0 5 41 22 17 5 14 1 7 13 6 10 17 12 12 9 15 4 12 13 12 11 5 5 5 2 0 0 0 1 0
0 0 0 0 0 0 0 1 0 0 0 0 1 5 63 16 5 25 17 16 5 9 6 11 15 14 14 7 13 12 15 7 6 3 18 13 4 1 0 0 0 0 0 0
0 0 0 0 0 0 0 1 3 12 24 38 50 18 66 42 16 24 31 20 14 10 7 10 21 20 12 12 17 8 13 7 11 2 11 4 5 3 4 2 0 0 0 0
0 0 0 0 1 0 0 3 9 8 10 11 68 36 133 54 13 13 30 16 11 5 2 5 6 16 13 11 11 11 11 8 10 2 0 4 4 2 4 4 2 1 0 0
0 0 0 0 0 0 0 0 5 16 33 46 64 50 83 18 12 30 20 16 14 6 1 2 5 20 8 5 12 14 9 6 10 4 4 2 1 1 3 8 4 4 0 0
0 0 0 0 0 0 0 0 5 17 22 33 22 44 62 10 28 18 18 10 8 3 1 1 3 3 0 1 2 5 6 7 7 4 1 2 2 0 2 3 2 2 2 2
0 4 0 0 0 0 0 1 5 8 15 24 35 37 5 7 4 7 9 7 5 3 0 0 1 1 0 0 0 0 5 5 5 3 1 1 1 1 2 1 0 1 1 1
5 5 4 0 1 2 8 9 7 2 0 4 8 18 15 14 13 10 6 8 6 3 0 1 1 1 1 0 0 0 2 4 6 4 2 2 3 0 0 0 1 1 2 2
0 3 2 3 5 8 4 0 0 0 2 4 6 8 9 10 9 3 5 8 4 1 0 0 1 1 2 1 1 3 2 2 4 5 6 5 2 0 0 1 1 2 2 3
2 7 17 14 1 1 4 4 0 0 4 7 11 12 12 5 6 17 4 3 4 1 0 0 0 1 1 0 1 3 4 5 5 5 4 3 3 1 0 1 2 2 4 4
5 7 27 8 1 2 15 0 0 4 20 10 11 9 11 7 9 6 10 5 4 1 0 0 0 0 0 0 1 2 3 3 3 5 5 3 3 1 1 1 1 2 2 2
24 13 20 9 10 4 5 0 0 14 14 6 13 16 15 17 16 11 7 6 5 2 0 0 0 0 0 1 2 2 2 4 5 3 3 2 2 2 2 4 5 4 5 8
3 9 6 7 12 5 0 0 6 7 8 11 10 13 10 10 6 2 0 0 0 1 0 0 0 0 1 2 1 1 2 4 7 7 3 1 3 2 3 7 10 10 11 13
4 2 26 3 28 1 1 3 5 4 6 6 7 4 4 2 0 0 0 0 0 0 0 0 2 2 1 1 1 2 3 4 7 10 8 8 6 6 8 11 13 13 7 9
1 0 2 0 2 4 7 3 5 8 6 9 3 1 0 0 0 0 0 0 0 0 1 1 2 2 2 3 2 4 6 6 7 9 7 8 10 11 11 10 14 14 9 16
2 4 5 2 2 6 5 7 7 1 8 3 0 0 0 0 0 0 0 0 0 2 2 4 6 5 5 4 5 8 7 8 10 10 11 13 11 11 13 17 15 15 15 13
0 2 6 6 10 18 7 16 10 9 3 0 0 0 0 0 0 0 0 0 2 5 6 6 5 6 5 5 5 7 7 8 10 13 15 18 15 17 18 19 24 7 4 2